sat.trackr.live / text

‹ back to catalog

STARLINK-37824

NORAD 69956 · 2026-157P

PAYLOAD ACTIVE UNKNOWN

§ Identity

Operator
Country
US
Launch date
2026-07-09
Launch site
AFETR
Launch vehicle
Mass (kg)
RCS (m²)

Purposes: comms

External: N2YO · Heavens-Above · Gunter

§ Orbital elements

Epoch: 2026-09-19T16:45:10.406304Z

Period
93.85 min
Inclination
53.1581°
Eccentricity
0.0001576
Mean motion
15.34396526 rev/d
Perigee alt
461.6 km
Apogee alt
463.8 km
Semi-major
6,840.9 km
B*
3.6428e-4
RAAN
337.1897°
Arg perigee
80.5431°
Mean anomaly
279.5749°
Rev number
1,125

§ Raw data

STARLINK-378241 69956U 26157P   26262.69803711  .00011950  00000+0  36428-3 0  99902 69956  53.1581 337.1897 0001576  80.5431 279.5749 15.34396526 11254

JSON: /api/v1/satellites/69956 · /tle

For live sub-satellite position, see the globe view (requires WebGL).

§ Visibility from observer

Set your observer location to see the next 7 days of passes ≥ 10°. The values pass through the URL so the page stays shareable.

No JS? Fill the form by hand. The geolocation button needs JavaScript.